TimeMDT,TemperatureF,Dew PointF,Humidity,Sea Level PressureIn,VisibilityMPH,Wind Direction,Wind SpeedMPH,Gust SpeedMPH,PrecipitationIn,Events,Conditions,WindDirDegrees,DateUTC
12:53 AM,27.0,21.0,78,30.26,10.0,West,9.2,-,N/A,,Clear,270,2013-04-24 06:53:00
1:53 AM,24.1,19.9,84,30.25,10.0,West,6.9,-,N/A,,Clear,260,2013-04-24 07:53:00
2:53 AM,24.1,19.0,81,30.22,10.0,West,5.8,-,N/A,,Clear,270,2013-04-24 08:53:00
3:53 AM,24.8,19.4,80,30.14,10.0,West,9.2,-,N/A,,Clear,270,2013-04-24 09:53:00
4:53 AM,23.0,18.0,81,30.20,10.0,West,8.1,-,N/A,,Clear,260,2013-04-24 10:53:00
5:53 AM,21.9,18.0,85,30.19,-9999.0,WSW,6.9,-,N/A,,Unknown,240,2013-04-24 11:53:00
6:53 AM,27.0,21.9,81,30.21,9.0,WSW,8.1,-,N/A,,Unknown,240,2013-04-24 12:53:00
7:53 AM,32.0,25.0,75,30.23,-9999.0,NNW,6.9,-,N/A,,Unknown,330,2013-04-24 13:53:00
8:53 AM,39.9,28.9,65,30.22,10.0,WNW,6.9,-,N/A,,Clear,300,2013-04-24 14:53:00
9:53 AM,44.1,26.1,49,30.22,10.0,NW,10.4,-,N/A,,Clear,310,2013-04-24 15:53:00
10:53 AM,51.1,19.0,28,30.20,10.0,NW,8.1,18.4,N/A,,Clear,310,2013-04-24 16:53:00
11:53 AM,53.1,17.1,24,30.19,10.0,NW,10.4,19.6,N/A,,Clear,310,2013-04-24 17:53:00
12:53 PM,55.9,17.1,22,30.17,10.0,WNW,15.0,20.7,N/A,,Partly Cloudy,300,2013-04-24 18:53:00
1:53 PM,55.9,15.1,20,30.17,10.0,WNW,15.0,26.5,N/A,,Mostly Cloudy,290,2013-04-24 19:53:00
2:53 PM,57.9,15.1,19,30.16,10.0,NW,21.9,29.9,N/A,,Mostly Cloudy,310,2013-04-24 20:53:00
3:53 PM,57.0,18.0,22,30.17,10.0,NW,19.6,36.8,N/A,,Overcast,310,2013-04-24 21:53:00
4:53 PM,53.1,18.0,25,30.19,10.0,NW,18.4,24.2,N/A,,Scattered Clouds,310,2013-04-24 22:53:00
5:53 PM,54.0,19.9,26,30.19,10.0,NNW,17.3,21.9,N/A,,Partly Cloudy,340,2013-04-24 23:53:00
6:53 PM,51.1,19.9,29,30.19,10.0,North,12.7,-,N/A,,Partly Cloudy,360,2013-04-25 00:53:00
7:53 PM,43.0,21.0,42,30.22,10.0,North,4.6,-,N/A,,Clear,350,2013-04-25 01:53:00
8:53 PM,41.0,21.0,45,30.25,10.0,NNE,3.5,-,N/A,,Clear,30,2013-04-25 02:53:00
9:53 PM,37.0,23.0,57,30.27,10.0,Calm,Calm,-,N/A,,Clear,0,2013-04-25 03:53:00
10:53 PM,36.0,23.0,59,30.25,10.0,Calm,Calm,-,N/A,,Clear,0,2013-04-25 04:53:00
11:53 PM,30.9,23.0,72,30.25,10.0,Calm,Calm,-,N/A,,Clear,0,2013-04-25 05:53:00